Home > Weather > Wright > Past weeks

Flag for USA Weather for the Past 2 Weeks in Wright, Florida, USA

Now
69 °F

Clear.


Feels Like: 69 °F
Forecast: 61 / 78 °F
Wind: 6 mph from Northwest

Location: Hurlburt Field

Current Time: May 4, 2016 at 9:06:45 PM

Latest Report: May 4, 2016 at 7:58 PM


Visibility: 10 mi

Pressure: 29.80 "Hg

Humidity: 43%

Dew Point: 45 °F

Location of WrightLocation

Historic Weather in Wright — Graph

°F

Wright Temperature Yesterday

Maximum temperature yesterday: 81 °F (at 1:58 PM)
Minimum temperature yesterday: 69 °F (at 5:58 AM)
Average temperature yesterday: 74 °F

High & Low Weather Summary for the Past Weeks

 TemperatureHumidityPressure
High83 °F (Apr 23, 1:58 PM)100% (Apr 21, 4:58 AM)30.12 "Hg (Apr 21, 4:58 AM)
Low57 °F (Apr 24, 5:58 AM)29% (Apr 23, 4:58 PM)29.78 "Hg (May 4, 3:58 PM)
Average72 °F79%29.95 "Hg
* Reported Apr 19 7:58 PM — May 4 7:58 PM, Wright, Weather by CustomWeather, © 2016

Note: Actual official high and low records may vary slightly from our data, if they occured in-between our weather recording intervals... More about our weather records

Advertising

Wright Weather History for the Previous 24 Hours

Scroll right to see more
 ConditionsComfort  
Time TempWeatherWind HumidityBarometerVisibility
7:58 PM
Wed, May 4
69 °FClear.6 mph43%29.80 "Hg10 mi
6:58 PM72 °FSunny.12 mph37%29.78 "Hg10 mi
5:58 PM74 °FSunny.15 mph33%29.78 "Hg10 mi
4:58 PM75 °FSunny.13 mph33%29.78 "Hg10 mi
3:58 PM76 °FPassing clouds.15 mph34%29.78 "Hg10 mi
2:59 PM75 °FScattered clouds.14 mph36%29.78 "Hg10 mi
2:47 PM77 °FSunny.16 mph34%29.78 "Hg10 mi
1:58 PM74 °FSunny.14 mph39%29.80 "Hg10 mi
12:58 PM74 °FBroken clouds.16 mph39%29.83 "Hg10 mi
11:58 AM73 °FBroken clouds.9 mph42%29.85 "Hg10 mi
10:58 AM73 °FPartly sunny.12 mph42%29.86 "Hg10 mi
9:58 AM71 °FSunny.5 mph47%29.88 "Hg10 mi
8:58 AM68 °FSunny.8 mph55%29.86 "Hg10 mi
7:58 AM64 °FSunny.14 mph67%29.86 "Hg10 mi
6:58 AM61 °FSunny.14 mph77%29.85 "Hg10 mi
5:58 AM61 °FClear.9 mph80%29.85 "Hg10 mi
4:58 AM63 °FClear.14 mph81%29.83 "Hg10 mi
3:58 AM67 °FPassing clouds.14 mph82%29.83 "Hg10 mi
2:58 AM68 °FOvercast.7 mph84%29.83 "Hg10 mi
1:58 AM69 °FOvercast.6 mph84%29.85 "Hg10 mi
12:58 AM69 °FOvercast.8 mph82%29.86 "Hg10 mi
11:58 PM
Tue, May 3
69 °FOvercast.7 mph88%29.86 "Hg10 mi
10:58 PM70 °FMostly cloudy.7 mph90%29.86 "Hg10 mi
9:58 PM71 °FOvercast.7 mph94%29.88 "Hg10 mi
Weather by CustomWeather, © 2016

See weather overviewHow to use our weather pages